Wetbulb
32.80 33.33 34.06 34.65 34.85 35.03 35.33 35.80 36.43 36.74 36.82 36.95 36.84 36.68 36.90 37.79 38.37 38.52 38.58 38.70 39.20 39.60 40.00 40.19 39.52 39.02 38.81 38.71 39.05 39.46 39.85 40.18 41.02 41.89 42.41 41.82 41.37 41.21 41.21 41.56 41.90 41.90 41.60 41.17 41.40 41.96 42.52 42.83 44.84 47.24 49.03 49.11 49.34 47.82 46.22 45.95 45.64 45.64 45.95 46.57 47.76 48.74 49.38 49.61 49.43 49.35 49.30 49.48 49.69
32.12 32.66 33.35 33.97 34.15 34.28 34.46 34.72 35.23 35.55 35.82 36.04 35.97 35.91 36.19 37.07 37.52 37.62 37.67 37.95 38.57 38.93 39.12 38.92 38.50 37.99 37.61 37.72 38.19 38.47 38.79 39.01 39.75 40.67 41.24 40.99 40.48 40.15 39.96 40.12 40.55 40.88 41.00 40.57 40.59 40.90 41.42 41.63 44.48 46.39 47.19 46.75 47.68 46.48 44.89 44.94 44.88 44.66 44.58 44.98 46.30 47.45 48.16 48.61 48.30 48.12 48.17 48.48 47.86
31.88 32.20 32.43 32.34 32.36 32.69 33.16 33.27 33.86 34.38 34.76 35.13 35.01 35.01 35.28 36.10 36.55 36.60 36.68 37.02 37.79 38.15 38.12 37.88 37.66 37.13 36.70 36.79 37.15 37.48 37.81 38.11 38.76 39.54 40.01 39.94 39.42 38.77 38.53 38.76 39.14 39.68 40.00 39.78 39.76 39.90 40.30 40.91 43.85 45.24 45.51 45.03 46.13 45.23 44.09 43.93 44.05 43.96 43.83 44.01 45.29 46.22 46.74 46.83 46.61 46.57 46.61 46.66 45.86
31.78 31.85 31.88 31.76 31.52 31.76 32.05 32.09 32.78 33.37 33.84 34.23 34.02 33.97 34.21 35.13 35.46 35.60 35.63 36.12 36.80 37.07 37.03 37.02 36.85 36.53 36.19 35.97 35.96 36.23 36.70 37.40 37.92 38.43 38.82 38.83 38.32 37.77 37.40 37.47 37.75 38.29 38.68 38.73 38.76 38.91 39.40 40.29 42.89 44.05 44.28 43.97 44.66 44.09 43.21 42.75 42.77 42.82 43.22 43.67 44.81 45.38 45.47 45.30 45.29 45.42 45.42 45.24 44.89
31.76 31.85 31.94 31.74 31.54 31.62 31.73 31.64 32.23 32.63 32.96 33.36 32.79 32.66 32.90 33.93 34.32 34.32 34.39 34.75 35.37 35.70 35.94 36.19 35.90 35.59 35.42 35.05 34.86 35.06 35.41 36.06 37.28 37.69 37.74 37.74 37.34 36.85 36.49 36.63 36.97 37.42 37.70 37.79 37.73 37.85 38.39 39.65 41.89 42.79 42.92 42.65 43.18 42.78 41.99 41.35 41.34 41.43 41.97 42.94 43.99 44.51 44.51 44.20 44.37 44.54 44.49 44.40 44.31
31.57 31.88 32.14 32.28 32.04 31.99 31.89 31.71 32.15 32.43 32.59 32.63 31.93 31.60 31.92 32.88 33.13 33.11 33.07 33.51 34.17 34.61 35.07 35.56 35.27 34.89 34.44 33.98 34.03 34.23 34.47 34.74 35.81 36.52 36.79 36.97 36.55 36.26 35.98 35.86 36.58 36.97 37.13 36.89 36.91 36.99 37.55 39.01 40.66 41.26 41.43 41.34 41.38 41.19 40.85 40.40 39.96 40.04 40.43 41.18 42.41 43.11 43.20 42.84 43.10 43.18 43.17 42.76 42.62
31.72 32.00 32.17 32.35 32.34 32.22 32.06 31.80 32.26 32.48 32.47 32.33 31.66 31.47 31.63 32.47 32.56 32.52 32.56 33.25 33.58 33.84 34.28 34.85 34.34 33.62 33.11 33.03 33.42 33.75 33.95 34.24 35.07 35.67 36.08 35.97 35.67 35.66 35.77 35.89 36.40 36.48 36.42 36.36 36.18 36.21 36.70 38.27 39.08 39.55 39.69 40.01 40.11 39.79 39.47 39.52 39.02 38.84 39.00 39.57 40.75 41.44 41.60 41.19 41.55 41.55 41.22 40.63 40.35
31.93 32.05 32.33 32.39 32.49 32.31 32.18 31.93 32.18 32.03 31.75 31.55 31.40 31.44 31.74 32.50 32.36 32.39 32.50 32.85 33.03 33.29 33.73 34.12 33.21 32.16 31.52 31.91 32.76 33.31 33.59 33.86 34.53 35.12 35.45 35.37 35.14 35.22 35.42 35.70 35.89 35.99 36.17 36.23 35.84 35.71 36.04 37.14 37.74 38.04 38.28 38.58 38.37 38.45 38.59 38.60 38.21 37.94 38.01 38.50 39.52 40.10 40.29 39.98 40.18 40.06 39.70 39.08 38.75
31.40 31.75 32.09 32.29 32.20 32.20 32.20 32.14 32.15 31.79 31.21 30.99 31.14 31.43 31.83 32.41 32.34 32.32 32.35 32.44 32.69 33.07 33.31 33.27 32.20 31.22 30.47 30.43 31.75 32.55 33.07 33.50 34.16 34.79 35.24 35.27 35.15 35.01 35.02 35.20 35.37 35.55 35.61 35.82 35.64 35.60 35.70 36.10 36.50 36.91 37.24 37.13 37.12 37.41 37.64 37.68 37.37 37.15 37.20 37.63 38.22 38.67 38.99 39.12 39.18 38.87 38.44 38.11 37.70
30.53 31.04 31.50 31.64 31.50 31.78 32.05 31.72 31.84 31.54 31.09 30.79 30.97 31.26 31.81 32.45 32.22 32.08 32.25 32.52 32.67 32.65 32.44 32.29 31.19 30.36 29.80 29.62 30.56 31.45 32.38 33.09 33.94 34.58 34.94 34.90 34.82 34.59 34.46 34.64 34.78 34.84 34.98 35.24 35.31 35.31 35.41 35.45 35.60 35.91 36.26 36.46 36.47 36.64 36.78 36.97 36.71 36.57 36.63 37.03 37.37 37.49 37.68 37.92 38.02 37.84 37.65 37.48 37.03
30.13 30.61 30.98 31.10 31.10 31.39 31.43 30.80 31.14 31.14 30.97 30.58 30.84 31.04 31.33 31.70 31.68 31.91 32.43 32.78 32.19 31.80 31.55 31.23 30.08 29.50 29.31 29.42 29.82 30.72 31.70 32.73 33.63 34.27 34.57 34.39 34.38 34.13 34.11 34.24 34.33 34.38 34.42 34.60 34.82 34.93 34.98 34.90 35.00 35.17 35.36 35.55 35.82 35.94 36.12 36.39 36.35 36.38 36.35 36.80 36.86 36.86 36.82 37.00 37.26 37.25 37.14 36.99 36.68
30.10 30.48 30.70 30.73 30.68 30.64 30.57 30.29 30.60 30.69 30.62 30.35 30.61 30.79 30.88 30.88 31.28 31.86 32.26 32.08 31.25 30.99 30.68 29.90 29.34 29.05 28.95 29.20 29.60 30.34 31.23 31.88 33.18 33.94 34.23 33.87 33.80 33.73 33.73 33.86 33.91 33.95 34.02 34.22 34.35 34.42 34.49 34.43 34.43 34.45 34.48 34.69 35.23 35.64 35.78 36.12 36.16 36.16 36.16 36.49 36.46 36.37 36.23 36.41 36.66 36.74 36.68 36.56 36.28
29.99 30.24 30.39 30.35 30.20 29.87 29.66 29.72 30.11 30.22 30.16 29.93 30.15 30.28 30.32 30.44 31.10 31.60 31.55 30.76 30.19 29.95 29.66 29.07 29.03 28.89 28.74 28.77 29.17 29.80 30.56 31.53 32.88 33.68 33.89 33.60 33.28 33.06 33.06 33.25 33.40 33.54 33.58 33.69 33.94 33.96 33.91 33.99 33.91 33.88 33.73 33.91 34.56 35.17 35.66 35.94 36.01 35.97 35.80 35.84 35.92 35.89 35.75 35.79 36.02 36.16 36.18 36.06 35.75
28.71 29.12 29.28 29.44 28.86 28.29 28.08 28.32 29.01 29.39 29.29 28.98 29.15 29.15 29.15 29.40 30.35 30.67 30.39 29.15 28.59 28.35 28.38 28.31 28.72 28.99 29.02 28.67 28.83 28.96 29.63 31.32 32.64 33.24 33.30 32.85 31.98 31.70 31.79 32.24 32.63 32.82 32.93 33.09 33.28 33.37 33.45 33.42 33.52 33.49 33.45 33.42 34.04 34.71 35.37 35.80 35.97 35.89 35.80 35.59 35.51 35.47 35.39 35.39 35.58 35.63 35.59 35.37 35.19
26.70 26.97 27.33 27.37 26.75 26.43 26.40 26.56 27.65 27.94 27.72 27.28 27.42 27.54 27.63 27.90 28.77 29.06 28.89 27.77 27.48 27.53 27.71 27.55 27.87 28.31 28.71 28.71 28.54 28.40 28.91 30.61 31.75 31.97 31.57 30.88 30.11 30.26 30.75 31.15 31.57 31.91 32.16 32.31 32.58 32.84 33.09 33.02 33.06 33.09 33.21 33.39 33.88 34.50 35.21 35.75 35.97 35.98 35.98 35.80 35.54 35.37 35.25 35.13 35.27 35.26 35.16 34.98 34.76
25.75 25.77 25.76 25.53 25.09 24.87 24.97 25.15 26.11 26.39 26.25 25.96 25.94 26.12 26.35 26.61 27.16 27.65 27.77 27.31 27.17 27.26 27.10 26.80 26.98 27.18 27.64 28.60 28.53 28.32 28.22 29.13 29.99 29.98 29.47 28.83 28.75 29.36 30.23 30.54 31.00 31.52 31.78 31.80 31.93 32.31 32.71 32.94 32.97 33.00 33.12 33.42 33.91 34.45 35.03 35.61 35.88 36.10 36.12 35.98 35.68 35.42 35.20 35.17 35.17 35.11 34.93 34.80 34.58
25.13 24.68 24.39 23.99 23.48 23.41 23.53 23.67 24.38 24.80 24.84 24.71 24.75 24.96 25.27 25.72 26.09 26.80 27.43 27.55 27.02 26.61 26.36 26.11 26.43 26.56 26.88 27.48 27.93 28.03 28.07 28.28 28.41 28.35 28.12 27.90 27.74 28.42 29.47 30.44 30.98 31.44 31.56 31.56 31.56 31.73 32.09 32.51 32.76 33.05 33.21 33.56 34.00 34.52 35.01 35.47 36.00 36.14 36.24 36.03 35.69 35.47 35.33 35.39 35.26 35.02 34.79 34.56 34.31
24.39 23.66 22.99 22.46 22.15 22.19 22.47 22.86 23.23 23.46 23.57 23.66 24.02 24.39 24.75 25.15 25.24 25.76 26.43 26.78 26.36 25.91 25.53 25.50 25.81 25.95 26.04 26.08 26.66 27.52 28.09 27.79 27.56 27.38 27.27 27.05 27.12 27.75 28.86 30.38 30.87 31.24 31.46 31.42 31.37 31.43 31.65 31.93 32.36 32.78 33.12 33.50 34.17 34.57 34.88 35.50 36.07 36.21 36.14 35.94 35.65 35.39 35.30 35.27 35.26 35.11 34.82 34.34 34.25
22.70 22.01 21.42 21.20 21.29 21.66 22.16 22.95 22.99 23.05 23.04 23.26 23.76 24.06 24.29 24.43 24.52 24.78 25.00 25.15 25.81 25.55 25.06 24.86 25.13 25.30 25.44 25.44 25.81 26.92 27.83 27.53 26.95 26.64 26.41 26.14 27.06 28.14 29.29 30.36 30.60 30.97 31.25 31.16 31.12 31.25 31.40 31.69 32.04 32.42 32.98 33.56 34.09 34.52 34.92 35.75 36.11 36.21 36.06 35.64 35.42 35.26 35.17 35.13 35.13 35.08 34.93 34.53 34.35
21.05 20.63 20.49 20.72 21.02 21.20 21.52 22.19 22.32 22.31 22.53 23.04 23.04 23.26 23.52 23.86 23.97 23.92 23.99 24.25 25.19 25.08 24.64 24.24 24.40 24.71 24.93 25.06 25.35 25.95 26.65 27.42 26.61 26.09 25.77 25.68 27.41 29.00 30.02 30.39 30.26 30.54 30.91 30.91 30.91 30.96 31.25 31.59 31.93 32.50 33.16 33.83 34.23 34.67 35.24 35.99 36.17 36.05 35.73 35.42 35.20 35.09 35.09 35.13 35.01 34.97 34.79 34.57 34.38
19.86 19.88 20.04 20.49 20.55 20.59 20.77 21.21 21.39 21.43 21.57 21.86 21.91 22.26 22.75 23.20 23.06 23.21 23.48 24.15 24.64 24.40 24.01 23.79 23.88 24.10 24.35 24.71 25.04 25.28 25.85 27.18 26.25 25.58 25.42 25.80 28.08 29.58 30.32 30.48 30.36 30.45 30.67 30.69 30.70 30.83 31.09 31.59 32.24 32.91 33.65 34.23 34.72 35.24 35.75 36.10 35.95 35.64 35.35 35.09 34.97 34.98 35.11 35.11 34.93 34.75 34.46 34.28 34.22
19.12 19.42 19.78 20.09 20.09 20.55 20.99 21.21 20.94 20.77 20.81 21.03 21.39 21.64 22.01 22.32 22.53 22.84 23.28 23.86 24.04 23.70 23.37 23.41 23.55 23.79 24.04 24.41 24.74 25.09 25.55 26.33 25.44 24.97 25.22 26.30 28.74 29.97 30.46 30.54 30.34 30.20 30.20 30.21 30.36 30.70 31.27 32.05 32.89 33.59 34.16 34.58 35.14 35.66 35.98 36.07 35.61 35.17 34.86 34.70 34.75 34.83 35.02 34.95 34.65 34.39 34.19 33.90 33.75
18.49 18.71 19.07 19.64 19.87 20.81 21.60 21.20 20.40 20.04 20.18 20.49 20.84 21.15 21.42 21.83 22.14 22.50 22.81 22.99 23.57 23.28 22.85 23.03 23.41 23.70 23.88 24.33 24.61 24.74 24.86 24.93 24.53 24.35 25.06 27.64 29.05 29.83 30.24 30.19 29.92 29.77 29.66 29.74 30.24 30.76 31.53 32.49 33.42 34.13 34.69 35.19 35.50 35.80 35.90 35.77 35.52 35.02 34.70 34.52 34.64 34.71 34.70 34.58 34.21 33.99 33.68 33.33 33.25
18.27 18.40 18.99 20.04 19.60 19.39 19.39 19.39 19.26 19.35 19.70 20.06 20.46 20.81 21.11 21.42 21.86 22.17 22.26 22.26 22.41 22.36 22.45 22.99 23.33 23.65 23.95 24.41 24.55 24.48 24.31 24.01 23.79 24.32 25.85 28.71 29.18 29.58 29.73 29.77 29.55 29.47 29.59 29.89 30.85 31.75 32.72 33.31 33.86 34.49 35.09 35.64 35.84 35.88 35.80 35.64 35.23 34.91 34.78 34.57 34.53 34.37 34.13 33.93 33.60 33.42 33.25 33.20 33.29
17.98 18.37 18.97 19.57 19.42 19.13 18.76 18.54 18.58 18.85 19.29 19.78 20.13 20.40 20.81 21.17 21.77 21.86 21.82 21.70 21.79 21.86 21.99 22.23 22.50 23.42 24.19 24.48 24.26 24.10 23.86 23.41 23.17 24.68 26.89 28.57 29.00 29.22 29.23 29.16 29.18 29.43 29.79 30.38 32.16 33.49 34.46 34.94 35.17 35.20 35.42 35.75 35.79 35.70 35.54 35.43 35.27 35.17 35.01 34.69 34.45 33.95 33.36 32.59 32.58 32.73 32.87 32.95 33.16
17.71 17.75 18.02 18.73 19.04 18.76 18.29 17.94 18.34 18.78 19.27 19.84 20.00 20.18 20.36 20.67 21.26 21.26 21.08 21.08 21.24 21.51 21.73 21.92 22.17 23.83 25.06 24.37 23.61 23.25 23.30 23.55 23.34 24.94 26.93 28.01 28.34 28.40 28.54 28.64 29.02 29.07 29.40 30.59 32.58 34.00 35.10 36.00 36.49 36.37 36.02 35.64 35.36 35.22 35.10 35.03 35.30 35.25 35.05 34.65 34.10 33.46 32.65 31.92 31.88 32.08 32.41 32.76 33.02
17.04 17.04 17.27 18.36 18.32 17.94 17.72 17.76 18.29 18.73 19.12 19.49 19.56 19.87 20.31 20.64 20.93 20.72 20.50 20.64 20.84 21.17 21.46 21.73 22.00 23.99 25.33 23.70 22.67 22.39 22.66 23.47 23.59 24.97 26.66 27.72 27.76 27.71 27.61 27.75 27.92 28.01 28.76 31.09 32.89 34.27 35.26 36.20 36.78 36.89 36.42 35.64 35.23 34.97 34.83 34.78 35.01 35.08 34.78 34.22 33.47 32.80 32.16 31.69 31.47 31.67 32.05 32.42 32.78
16.37 16.65 16.96 17.23 17.19 17.22 17.40 17.49 17.80 18.10 18.56 18.96 19.25 19.96 20.62 20.75 20.44 20.40 20.40 20.58 20.81 21.04 21.34 21.66 22.53 23.38 23.68 22.75 22.19 22.10 22.53 23.06 23.74 25.45 27.21 28.13 28.11 27.29 26.50 26.19 26.16 27.19 29.08 31.76 33.13 34.30 35.26 36.11 36.60 36.71 36.63 35.95 35.23 34.94 34.95 34.88 34.77 34.36 33.76 33.03 32.54 32.06 31.64 31.42 31.49 31.58 31.64 31.87 32.15
15.93 16.21 16.34 16.34 16.56 16.96 17.26 17.35 17.66 18.02 18.33 18.77 19.40 20.13 20.62 20.62 20.58 20.50 20.50 20.49 20.54 20.80 21.26 21.95 23.07 23.01 22.44 21.86 21.88 21.99 22.44 23.01 24.14 25.66 27.08 27.82 27.79 27.51 26.87 25.82 25.45 26.78 29.23 32.11 33.34 34.30 35.17 35.91 36.27 36.46 36.55 36.39 35.36 34.92 34.72 34.61 34.05 33.34 32.52 31.99 31.70 31.48 31.33 31.31 31.36 31.41 31.39 31.27 31.22
15.75 15.88 15.90 16.12 16.29 16.64 16.95 17.21 17.65 18.09 18.72 19.44 19.66 19.84 19.93 20.13 20.15 20.09 20.01 19.83 19.93 20.75 21.74 22.45 22.17 21.70 21.24 21.04 21.33 21.63 22.29 23.39 25.31 26.60 27.22 27.26 26.96 26.04 25.21 25.28 24.72 26.17 28.78 32.11 33.34 34.35 35.06 35.59 35.78 35.96 36.18 36.42 35.76 35.08 34.32 33.87 32.98 32.18 31.58 31.27 31.19 31.19 31.14 31.16 31.12 30.97 30.87 30.60 30.42
15.44 15.53 15.68 15.95 16.12 16.42 16.77 17.19 17.74 18.23 18.72 19.00 18.82 19.00 19.29 19.43 19.40 19.49 19.48 19.53 20.13 21.43 22.41 21.70 20.73 20.28 20.27 20.67 20.94 21.32 22.17 23.74 25.49 26.48 26.63 26.00 25.56 24.85 24.18 23.84 23.74 25.73 28.74 32.13 33.43 34.33 34.95 35.27 35.48 35.62 35.88 36.14 35.57 34.68 33.67 32.87 32.15 31.54 31.12 30.88 30.88 30.97 30.88 30.86 30.62 30.44 30.24 30.05 29.88
15.22 15.33 15.55 15.86 16.07 16.42 16.86 17.27 17.71 17.96 18.01 17.83 18.06 18.51 18.89 18.85 18.87 18.94 19.21 19.84 20.53 20.73 20.49 20.01 19.64 19.73 19.92 20.19 20.44 21.01 21.90 23.28 24.70 25.30 25.28 24.62 23.82 23.19 23.10 23.71 23.61 25.69 28.93 32.26 33.35 34.11 34.63 34.93 35.14 35.40 35.67 35.90 35.28 34.24 33.06 32.19 31.58 31.22 30.88 30.83 30.84 30.70 30.62 30.56 30.32 30.04 29.83 29.74 29.67
15.06 15.24 15.36 15.59 16.16 16.64 17.08 17.32 17.58 17.74 17.74 17.80 18.02 18.42 18.76 18.78 18.77 18.90 19.21 20.06 20.36 19.75 19.03 19.03 19.11 19.29 19.39 19.61 19.83 20.39 21.38 22.73 23.61 24.24 24.50 24.12 23.19 22.70 22.82 23.65 23.61 26.35 29.74 32.36 33.18 33.76 34.18 34.56 34.93 35.20 35.46 35.62 34.71 33.49 32.26 31.51 31.27 30.96 30.63 30.42 30.42 30.37 30.19 30.09 29.93 29.85 29.86 29.88 29.89
14.88 15.06 15.19 15.59 16.25 16.69 16.86 16.92 17.17 17.39 17.62 17.71 18.11 18.42 18.65 18.56 18.55 18.77 19.34 20.59 20.53 19.89 19.17 18.93 18.85 18.82 18.91 19.13 19.60 20.21 21.27 23.10 23.10 22.66 22.26 22.16 21.98 22.22 22.66 23.10 23.81 27.00 30.46 32.20 32.79 33.39 33.88 34.31 34.65 35.03 35.25 35.28 33.87 32.49 31.38 30.76 30.51 30.24 30.00 29.89 29.91 29.96 29.99 30.12 30.07 30.09 30.19 30.18 30.22
14.66 14.80 15.02 15.33 15.77 16.07 16.29 16.28 16.55 16.96 17.35 17.63 18.07 18.34 18.38 18.06 18.10 18.32 19.39 21.48 21.48 20.28 18.93 18.73 18.69 18.73 18.86 19.04 19.52 20.36 21.27 22.05 21.69 21.55 21.49 21.76 21.86 22.13 22.52 22.66 23.61 26.90 30.38 31.82 32.35 32.91 33.48 34.03 34.42 34.76 34.82 34.39 32.83 31.67 30.76 30.19 29.89 29.68 29.55 29.45 29.49 29.68 29.94 30.05 30.14 30.27 30.34 30.44 30.33
14.47 14.60 14.78 15.00 15.28 15.50 15.81 15.94 16.25 16.69 17.10 17.50 17.85 18.07 18.11 18.02 17.96 18.27 19.42 21.82 20.98 19.42 18.32 18.38 18.42 18.23 18.19 18.41 19.03 20.19 20.96 20.76 20.70 20.96 21.41 22.20 22.13 21.86 21.71 22.07 22.96 26.20 29.58 31.29 31.92 32.55 33.17 33.69 34.12 34.44 34.31 33.28 31.78 30.89 30.37 29.99 29.67 29.49 29.35 29.19 29.24 29.37 29.62 29.97 30.14 30.32 30.44 30.47 30.45
14.42 14.56 14.69 14.78 15.04 15.24 15.50 15.77 16.08 16.34 16.68 17.08 17.26 17.45 17.67 17.80 17.88 18.27 19.33 21.15 19.21 18.18 17.94 18.16 18.10 18.01 17.97 18.15 18.95 19.64 20.17 20.66 20.80 21.02 21.64 22.69 22.38 21.85 21.63 22.22 22.44 24.95 28.16 30.68 31.54 32.27 32.87 33.42 33.88 34.14 33.62 32.13 30.93 30.37 30.04 29.82 29.61 29.39 29.23 29.12 29.09 29.33 29.58 29.93 30.04 30.25 30.34 30.44 30.72
14.42 14.69 14.92 14.87 14.96 15.09 15.35 15.46 15.64 15.88 16.15 16.55 16.79 17.10 17.32 17.40 17.49 18.09 19.38 21.33 18.72 17.65 17.58 17.71 17.71 17.97 18.37 18.91 19.83 20.27 20.43 20.74 21.33 21.42 21.42 21.58 21.58 21.80 22.16 22.52 22.39 24.06 26.89 29.96 31.15 32.01 32.64 33.23 33.72 33.86 33.33 31.64 30.67 30.19 29.96 29.77 29.46 29.32 29.19 29.09 29.18 29.28 29.59 29.86 29.93 30.03 30.11 30.35 31.15
14.60 14.83 14.87 14.69 14.83 15.09 15.22 15.09 15.26 15.53 15.93 16.33 16.64 16.88 17.10 17.23 17.50 18.60 19.89 20.77 18.46 17.39 17.14 17.27 17.57 18.23 19.25 20.49 21.04 20.81 20.39 20.53 21.11 21.54 21.55 20.83 21.45 23.17 24.51 23.57 22.44 23.43 25.92 29.42 30.79 31.76 32.44 33.06 33.51 33.75 33.44 32.10 30.89 30.33 30.15 29.80 29.41 29.27 29.05 28.91 28.94 29.06 29.35 29.75 29.79 29.78 29.70 29.88 31.31
14.42 14.47 14.38 14.16 14.61 14.92 14.91 14.78 15.00 15.46 15.97 16.37 16.51 16.64 16.99 17.52 18.58 19.62 20.05 19.48 17.85 17.14 17.12 17.34 17.76 18.59 19.97 22.07 21.61 20.59 19.82 20.09 20.19 20.61 21.11 21.51 22.69 25.12 26.39 24.24 22.11 22.42 24.76 28.60 30.44 31.55 32.27 32.90 33.31 33.63 33.50 32.14 31.25 30.72 30.41 30.03 29.44 29.08 28.84 28.77 28.70 28.76 28.99 29.27 29.39 29.34 29.24 29.18 30.27
13.85 14.16 14.47 14.65 14.69 14.74 14.64 14.47 14.84 15.42 15.90 16.19 16.15 16.90 18.15 19.35 19.09 18.67 18.16 17.61 17.00 17.00 17.36 17.96 18.23 18.73 19.83 21.69 21.21 20.15 19.34 19.42 19.97 20.28 20.76 22.13 22.74 24.39 25.03 22.74 21.15 21.24 22.99 26.49 29.66 31.40 32.18 32.71 33.19 33.56 33.55 32.58 31.67 31.12 30.65 30.16 29.36 28.75 28.53 28.57 28.73 28.73 28.66 28.64 28.78 28.80 28.81 28.72 28.91
MSLP
1024.06 1023.90 1023.72 1023.56 1023.48 1023.34 1023.22 1023.12 1023.00 1022.90 1022.82 1022.76 1022.66 1022.56 1022.48 1022.28 1022.16 1022.10 1022.06 1022.04 1021.94 1021.84 1021.76 1021.68 1021.66 1021.66 1021.60 1021.48 1021.28 1021.12 1020.94 1020.76 1020.54 1020.32 1020.16 1020.06 1019.96 1019.90 1019.82 1019.66 1019.48 1019.32 1019.18 1019.06 1018.84 1018.60 1018.38 1018.12 1017.82 1017.48 1017.18 1017.04 1016.90 1016.96 1017.10 1017.10 1017.00 1016.84 1016.68 1016.54 1016.34 1016.18 1016.04 1015.90 1015.84 1015.78 1015.72 1015.66 1015.60
1024.12 1024.00 1023.88 1023.76 1023.62 1023.50 1023.38 1023.26 1023.16 1023.06 1022.96 1022.88 1022.84 1022.78 1022.68 1022.54 1022.40 1022.34 1022.32 1022.28 1022.18 1022.12 1022.00 1021.94 1021.90 1021.88 1021.82 1021.66 1021.50 1021.32 1021.12 1020.94 1020.72 1020.48 1020.26 1020.16 1020.12 1020.10 1020.00 1019.84 1019.68 1019.50 1019.38 1019.26 1019.06 1018.84 1018.62 1018.38 1017.96 1017.66 1017.48 1017.34 1017.18 1017.22 1017.28 1017.28 1017.22 1017.10 1016.94 1016.78 1016.56 1016.38 1016.22 1016.10 1016.06 1016.00 1015.90 1015.84 1015.84
1024.18 1024.06 1023.96 1023.88 1023.78 1023.66 1023.54 1023.44 1023.32 1023.22 1023.12 1023.06 1023.04 1023.04 1022.96 1022.82 1022.68 1022.60 1022.54 1022.48 1022.38 1022.28 1022.18 1022.12 1022.10 1022.04 1021.94 1021.78 1021.66 1021.48 1021.28 1021.06 1020.84 1020.60 1020.40 1020.28 1020.26 1020.18 1020.12 1020.04 1019.82 1019.66 1019.54 1019.40 1019.28 1019.10 1018.88 1018.60 1018.16 1017.88 1017.76 1017.66 1017.48 1017.44 1017.50 1017.44 1017.40 1017.28 1017.12 1016.96 1016.78 1016.62 1016.48 1016.38 1016.32 1016.28 1016.22 1016.12 1016.12
1024.26 1024.16 1024.10 1024.00 1023.90 1023.82 1023.72 1023.62 1023.54 1023.40 1023.32 1023.26 1023.26 1023.26 1023.16 1023.00 1022.90 1022.84 1022.76 1022.62 1022.54 1022.44 1022.38 1022.28 1022.26 1022.18 1022.10 1021.94 1021.78 1021.62 1021.44 1021.18 1020.96 1020.76 1020.56 1020.44 1020.38 1020.34 1020.32 1020.18 1020.00 1019.84 1019.72 1019.62 1019.50 1019.34 1019.10 1018.78 1018.38 1018.10 1017.96 1017.90 1017.76 1017.68 1017.72 1017.68 1017.62 1017.50 1017.34 1017.16 1016.96 1016.82 1016.68 1016.62 1016.60 1016.50 1016.44 1016.38 1016.34
1024.32 1024.28 1024.22 1024.16 1024.06 1023.96 1023.88 1023.82 1023.68 1023.56 1023.50 1023.48 1023.48 1023.40 1023.32 1023.18 1023.06 1023.00 1022.90 1022.82 1022.66 1022.56 1022.50 1022.40 1022.34 1022.28 1022.22 1022.10 1021.90 1021.72 1021.54 1021.34 1021.12 1020.90 1020.72 1020.62 1020.54 1020.50 1020.48 1020.34 1020.16 1020.00 1019.88 1019.78 1019.66 1019.50 1019.28 1018.96 1018.56 1018.34 1018.26 1018.16 1018.00 1017.94 1018.00 1017.96 1017.90 1017.76 1017.60 1017.38 1017.18 1017.04 1016.94 1016.84 1016.78 1016.72 1016.66 1016.60 1016.50
1024.44 1024.38 1024.32 1024.26 1024.16 1024.06 1023.96 1023.90 1023.82 1023.72 1023.66 1023.62 1023.60 1023.56 1023.44 1023.32 1023.22 1023.12 1023.06 1022.96 1022.82 1022.72 1022.60 1022.48 1022.40 1022.34 1022.28 1022.16 1022.00 1021.82 1021.62 1021.48 1021.26 1021.06 1020.88 1020.76 1020.66 1020.60 1020.54 1020.48 1020.32 1020.16 1020.00 1019.90 1019.78 1019.66 1019.44 1019.12 1018.78 1018.60 1018.50 1018.44 1018.28 1018.26 1018.28 1018.22 1018.12 1018.00 1017.82 1017.62 1017.44 1017.28 1017.18 1017.12 1017.06 1016.96 1016.88 1016.82 1016.76
1024.60 1024.50 1024.40 1024.32 1024.22 1024.12 1024.04 1023.96 1023.88 1023.78 1023.68 1023.68 1023.62 1023.56 1023.50 1023.38 1023.28 1023.18 1023.12 1023.04 1022.88 1022.76 1022.62 1022.50 1022.44 1022.40 1022.34 1022.22 1022.04 1021.84 1021.68 1021.56 1021.34 1021.16 1021.00 1020.90 1020.82 1020.72 1020.62 1020.50 1020.34 1020.22 1020.12 1020.00 1019.88 1019.76 1019.56 1019.32 1019.04 1018.84 1018.72 1018.66 1018.54 1018.48 1018.48 1018.40 1018.32 1018.18 1018.04 1017.84 1017.66 1017.54 1017.44 1017.38 1017.32 1017.22 1017.12 1017.04 1016.96
1024.68 1024.60 1024.50 1024.38 1024.26 1024.16 1024.06 1024.00 1023.90 1023.82 1023.72 1023.72 1023.66 1023.60 1023.48 1023.34 1023.26 1023.18 1023.10 1023.00 1022.88 1022.76 1022.62 1022.54 1022.48 1022.44 1022.38 1022.28 1022.10 1021.90 1021.78 1021.66 1021.44 1021.26 1021.10 1020.96 1020.90 1020.82 1020.68 1020.56 1020.40 1020.28 1020.18 1020.06 1019.96 1019.84 1019.68 1019.44 1019.22 1019.06 1018.94 1018.82 1018.72 1018.66 1018.60 1018.56 1018.48 1018.34 1018.18 1018.04 1017.88 1017.76 1017.66 1017.56 1017.50 1017.40 1017.32 1017.22 1017.12
1024.76 1024.66 1024.54 1024.40 1024.28 1024.16 1024.06 1023.96 1023.88 1023.82 1023.76 1023.76 1023.68 1023.56 1023.44 1023.32 1023.22 1023.12 1023.04 1022.94 1022.84 1022.76 1022.66 1022.56 1022.50 1022.44 1022.38 1022.28 1022.12 1022.00 1021.88 1021.72 1021.54 1021.34 1021.18 1021.06 1020.94 1020.82 1020.72 1020.60 1020.44 1020.32 1020.22 1020.12 1020.04 1019.94 1019.78 1019.60 1019.40 1019.28 1019.18 1019.06 1018.96 1018.84 1018.76 1018.66 1018.56 1018.44 1018.28 1018.12 1017.96 1017.88 1017.82 1017.76 1017.62 1017.54 1017.44 1017.34 1017.22
1024.82 1024.68 1024.54 1024.40 1024.28 1024.16 1024.06 1024.00 1023.90 1023.82 1023.76 1023.72 1023.62 1023.54 1023.40 1023.28 1023.16 1023.06 1022.96 1022.90 1022.82 1022.72 1022.66 1022.56 1022.54 1022.48 1022.38 1022.32 1022.18 1022.06 1021.94 1021.78 1021.56 1021.38 1021.22 1021.10 1021.00 1020.90 1020.78 1020.66 1020.54 1020.38 1020.28 1020.18 1020.06 1019.96 1019.84 1019.68 1019.56 1019.44 1019.34 1019.18 1019.10 1019.00 1018.88 1018.72 1018.60 1018.48 1018.34 1018.18 1018.04 1017.94 1017.84 1017.78 1017.66 1017.56 1017.48 1017.38 1017.26
1024.84 1024.72 1024.56 1024.40 1024.28 1024.16 1024.06 1024.00 1023.90 1023.82 1023.76 1023.66 1023.60 1023.48 1023.34 1023.26 1023.16 1023.04 1022.94 1022.88 1022.82 1022.72 1022.66 1022.66 1022.60 1022.54 1022.44 1022.34 1022.22 1022.12 1021.96 1021.82 1021.66 1021.44 1021.26 1021.16 1021.06 1020.96 1020.84 1020.72 1020.60 1020.44 1020.32 1020.22 1020.12 1020.04 1019.88 1019.76 1019.62 1019.48 1019.38 1019.28 1019.16 1019.04 1018.88 1018.76 1018.60 1018.44 1018.32 1018.18 1018.06 1017.94 1017.82 1017.72 1017.62 1017.56 1017.48 1017.34 1017.22
1024.82 1024.66 1024.54 1024.40 1024.32 1024.22 1024.12 1024.04 1023.90 1023.82 1023.76 1023.62 1023.54 1023.44 1023.32 1023.26 1023.12 1023.04 1022.94 1022.88 1022.84 1022.78 1022.76 1022.76 1022.68 1022.60 1022.50 1022.38 1022.26 1022.12 1022.00 1021.88 1021.66 1021.48 1021.32 1021.18 1021.10 1021.00 1020.88 1020.76 1020.62 1020.50 1020.38 1020.28 1020.18 1020.06 1019.94 1019.78 1019.66 1019.54 1019.40 1019.32 1019.18 1019.04 1018.88 1018.68 1018.54 1018.38 1018.26 1018.12 1018.04 1017.90 1017.78 1017.68 1017.60 1017.54 1017.44 1017.34 1017.18
1024.76 1024.60 1024.48 1024.40 1024.32 1024.26 1024.16 1024.04 1023.90 1023.78 1023.68 1023.62 1023.54 1023.40 1023.34 1023.26 1023.16 1023.10 1023.04 1022.96 1022.96 1022.90 1022.84 1022.82 1022.76 1022.66 1022.54 1022.44 1022.32 1022.16 1022.04 1021.88 1021.68 1021.50 1021.38 1021.26 1021.16 1021.06 1020.94 1020.82 1020.68 1020.56 1020.44 1020.34 1020.26 1020.12 1019.96 1019.84 1019.68 1019.56 1019.44 1019.32 1019.18 1019.04 1018.88 1018.68 1018.50 1018.38 1018.26 1018.10 1017.96 1017.88 1017.78 1017.68 1017.60 1017.50 1017.40 1017.28 1017.16
1024.76 1024.62 1024.50 1024.40 1024.34 1024.28 1024.18 1024.06 1023.90 1023.78 1023.68 1023.62 1023.54 1023.50 1023.44 1023.34 1023.28 1023.22 1023.16 1023.12 1023.10 1023.04 1022.94 1022.84 1022.76 1022.66 1022.56 1022.44 1022.32 1022.22 1022.10 1021.90 1021.72 1021.56 1021.40 1021.32 1021.26 1021.16 1021.04 1020.90 1020.76 1020.60 1020.48 1020.38 1020.28 1020.16 1020.04 1019.84 1019.76 1019.60 1019.48 1019.32 1019.18 1019.04 1018.88 1018.72 1018.54 1018.38 1018.22 1018.10 1017.96 1017.84 1017.76 1017.66 1017.60 1017.48 1017.34 1017.22 1017.10
1024.72 1024.60 1024.50 1024.44 1024.38 1024.28 1024.22 1024.10 1023.96 1023.88 1023.78 1023.72 1023.66 1023.60 1023.54 1023.48 1023.40 1023.34 1023.28 1023.18 1023.12 1023.06 1022.96 1022.88 1022.76 1022.66 1022.56 1022.44 1022.32 1022.26 1022.12 1021.96 1021.78 1021.62 1021.50 1021.40 1021.32 1021.22 1021.06 1020.94 1020.78 1020.62 1020.50 1020.44 1020.32 1020.18 1020.06 1019.94 1019.82 1019.68 1019.54 1019.34 1019.18 1019.00 1018.82 1018.66 1018.50 1018.34 1018.22 1018.10 1018.00 1017.88 1017.76 1017.66 1017.56 1017.48 1017.34 1017.22 1017.06
1024.66 1024.56 1024.50 1024.44 1024.40 1024.32 1024.26 1024.18 1024.10 1023.96 1023.90 1023.84 1023.78 1023.72 1023.66 1023.60 1023.50 1023.40 1023.32 1023.22 1023.16 1023.06 1022.96 1022.88 1022.76 1022.66 1022.54 1022.44 1022.34 1022.26 1022.12 1022.00 1021.82 1021.68 1021.56 1021.44 1021.34 1021.22 1021.06 1020.94 1020.82 1020.66 1020.54 1020.44 1020.32 1020.18 1020.10 1019.96 1019.84 1019.72 1019.56 1019.38 1019.16 1018.96 1018.78 1018.60 1018.44 1018.32 1018.18 1018.06 1017.94 1017.88 1017.78 1017.66 1017.54 1017.44 1017.32 1017.18 1017.06
1024.66 1024.62 1024.56 1024.54 1024.48 1024.40 1024.32 1024.26 1024.18 1024.10 1024.00 1023.94 1023.84 1023.78 1023.72 1023.62 1023.54 1023.40 1023.32 1023.22 1023.16 1023.06 1022.96 1022.90 1022.78 1022.68 1022.56 1022.44 1022.34 1022.22 1022.10 1022.00 1021.88 1021.76 1021.62 1021.50 1021.38 1021.26 1021.12 1020.96 1020.84 1020.68 1020.56 1020.44 1020.32 1020.18 1020.06 1019.96 1019.84 1019.72 1019.56 1019.34 1019.16 1018.94 1018.76 1018.56 1018.38 1018.26 1018.10 1018.00 1017.90 1017.82 1017.76 1017.62 1017.54 1017.40 1017.28 1017.16 1017.06
1024.78 1024.76 1024.68 1024.62 1024.56 1024.50 1024.44 1024.34 1024.26 1024.16 1024.06 1023.96 1023.88 1023.78 1023.68 1023.62 1023.54 1023.44 1023.34 1023.26 1023.16 1023.06 1022.96 1022.90 1022.82 1022.68 1022.60 1022.48 1022.38 1022.26 1022.10 1022.00 1021.88 1021.78 1021.66 1021.54 1021.44 1021.28 1021.16 1021.00 1020.88 1020.72 1020.60 1020.48 1020.38 1020.26 1020.10 1019.96 1019.88 1019.72 1019.54 1019.32 1019.10 1018.90 1018.68 1018.50 1018.32 1018.16 1018.04 1017.94 1017.82 1017.76 1017.66 1017.56 1017.44 1017.34 1017.26 1017.12 1017.00
1024.94 1024.88 1024.82 1024.72 1024.66 1024.56 1024.48 1024.38 1024.28 1024.18 1024.10 1023.96 1023.88 1023.78 1023.68 1023.60 1023.54 1023.44 1023.34 1023.26 1023.18 1023.10 1023.00 1022.90 1022.78 1022.68 1022.56 1022.48 1022.38 1022.22 1022.10 1022.00 1021.88 1021.78 1021.68 1021.56 1021.44 1021.32 1021.16 1021.00 1020.88 1020.76 1020.62 1020.50 1020.40 1020.28 1020.12 1019.96 1019.82 1019.66 1019.44 1019.22 1019.00 1018.78 1018.56 1018.40 1018.22 1018.06 1017.94 1017.88 1017.76 1017.66 1017.56 1017.48 1017.34 1017.26 1017.18 1017.06 1016.96
1025.10 1024.96 1024.88 1024.78 1024.68 1024.60 1024.48 1024.38 1024.26 1024.16 1024.06 1023.94 1023.84 1023.76 1023.68 1023.60 1023.54 1023.44 1023.34 1023.26 1023.18 1023.10 1023.00 1022.94 1022.82 1022.66 1022.54 1022.44 1022.32 1022.22 1022.10 1022.00 1021.88 1021.78 1021.68 1021.60 1021.44 1021.28 1021.12 1021.00 1020.88 1020.76 1020.62 1020.54 1020.40 1020.26 1020.12 1019.94 1019.76 1019.54 1019.32 1019.10 1018.88 1018.66 1018.44 1018.26 1018.12 1017.96 1017.88 1017.78 1017.66 1017.56 1017.44 1017.32 1017.22 1017.16 1017.10 1017.00 1016.90
1025.16 1025.04 1024.90 1024.82 1024.72 1024.60 1024.50 1024.38 1024.26 1024.16 1024.04 1023.94 1023.84 1023.76 1023.68 1023.60 1023.54 1023.44 1023.38 1023.28 1023.16 1023.06 1022.96 1022.90 1022.78 1022.68 1022.56 1022.44 1022.32 1022.22 1022.12 1022.00 1021.90 1021.84 1021.72 1021.60 1021.40 1021.26 1021.10 1021.00 1020.84 1020.76 1020.62 1020.54 1020.38 1020.26 1020.06 1019.88 1019.66 1019.40 1019.16 1018.90 1018.72 1018.50 1018.32 1018.16 1018.00 1017.84 1017.76 1017.66 1017.56 1017.44 1017.32 1017.18 1017.10 1017.06 1017.00 1016.90 1016.82
1025.12 1025.04 1024.90 1024.78 1024.68 1024.60 1024.48 1024.34 1024.26 1024.16 1024.04 1023.94 1023.84 1023.76 1023.66 1023.60 1023.50 1023.44 1023.34 1023.26 1023.16 1023.06 1022.96 1022.90 1022.78 1022.68 1022.60 1022.44 1022.34 1022.22 1022.10 1022.00 1021.94 1021.84 1021.72 1021.56 1021.38 1021.22 1021.10 1020.96 1020.84 1020.72 1020.60 1020.50 1020.34 1020.18 1019.96 1019.72 1019.48 1019.26 1019.00 1018.76 1018.54 1018.34 1018.18 1018.06 1017.90 1017.78 1017.62 1017.50 1017.40 1017.28 1017.16 1017.10 1017.00 1016.96 1016.90 1016.82 1016.76
1025.10 1025.00 1024.90 1024.78 1024.68 1024.54 1024.40 1024.32 1024.26 1024.16 1024.06 1023.94 1023.82 1023.72 1023.66 1023.56 1023.48 1023.38 1023.32 1023.22 1023.12 1023.06 1022.96 1022.88 1022.78 1022.68 1022.56 1022.44 1022.34 1022.22 1022.10 1021.96 1021.88 1021.78 1021.66 1021.50 1021.34 1021.18 1021.06 1020.94 1020.82 1020.72 1020.60 1020.44 1020.28 1020.06 1019.78 1019.54 1019.26 1019.04 1018.82 1018.62 1018.40 1018.26 1018.10 1017.96 1017.84 1017.68 1017.54 1017.38 1017.22 1017.10 1017.00 1016.96 1016.90 1016.84 1016.78 1016.72 1016.62
1025.06 1024.96 1024.88 1024.76 1024.68 1024.56 1024.44 1024.32 1024.22 1024.12 1024.04 1023.90 1023.78 1023.68 1023.62 1023.54 1023.44 1023.34 1023.28 1023.22 1023.12 1023.06 1023.00 1022.88 1022.78 1022.66 1022.54 1022.40 1022.32 1022.22 1022.12 1021.96 1021.88 1021.76 1021.56 1021.40 1021.28 1021.16 1021.04 1020.90 1020.78 1020.62 1020.50 1020.38 1020.16 1019.90 1019.62 1019.34 1019.06 1018.84 1018.66 1018.50 1018.32 1018.18 1018.06 1017.90 1017.78 1017.60 1017.44 1017.26 1017.12 1017.00 1016.88 1016.84 1016.82 1016.76 1016.66 1016.56 1016.48
1025.06 1024.96 1024.84 1024.76 1024.66 1024.54 1024.44 1024.34 1024.22 1024.10 1024.00 1023.88 1023.78 1023.68 1023.60 1023.54 1023.44 1023.34 1023.28 1023.26 1023.16 1023.06 1022.96 1022.88 1022.76 1022.60 1022.48 1022.38 1022.28 1022.18 1022.10 1022.00 1021.88 1021.72 1021.54 1021.34 1021.22 1021.12 1021.00 1020.84 1020.72 1020.56 1020.44 1020.28 1020.00 1019.68 1019.40 1019.18 1018.94 1018.72 1018.50 1018.34 1018.22 1018.10 1017.96 1017.78 1017.66 1017.50 1017.34 1017.18 1017.04 1016.90 1016.82 1016.72 1016.66 1016.60 1016.54 1016.40 1016.32
1025.04 1024.94 1024.88 1024.76 1024.62 1024.54 1024.44 1024.32 1024.18 1024.06 1023.96 1023.88 1023.78 1023.68 1023.60 1023.56 1023.44 1023.38 1023.32 1023.22 1023.12 1023.04 1022.94 1022.82 1022.68 1022.56 1022.44 1022.34 1022.26 1022.18 1022.10 1021.96 1021.84 1021.68 1021.50 1021.32 1021.16 1021.04 1020.90 1020.78 1020.62 1020.50 1020.38 1020.18 1019.88 1019.56 1019.28 1019.00 1018.78 1018.56 1018.40 1018.26 1018.12 1018.00 1017.84 1017.68 1017.56 1017.40 1017.26 1017.12 1017.00 1016.90 1016.78 1016.66 1016.54 1016.44 1016.34 1016.26 1016.16
1025.04 1024.94 1024.84 1024.72 1024.60 1024.50 1024.40 1024.28 1024.16 1024.04 1023.94 1023.84 1023.76 1023.68 1023.62 1023.54 1023.44 1023.34 1023.28 1023.18 1023.10 1022.96 1022.88 1022.78 1022.66 1022.54 1022.40 1022.38 1022.32 1022.18 1022.06 1021.94 1021.78 1021.62 1021.48 1021.32 1021.16 1020.96 1020.82 1020.68 1020.60 1020.50 1020.34 1020.10 1019.78 1019.44 1019.16 1018.90 1018.66 1018.44 1018.28 1018.18 1018.06 1017.94 1017.78 1017.60 1017.44 1017.32 1017.22 1017.10 1017.00 1016.88 1016.76 1016.62 1016.48 1016.32 1016.18 1016.06 1015.96
1025.00 1024.90 1024.82 1024.68 1024.60 1024.48 1024.38 1024.26 1024.12 1024.04 1023.94 1023.84 1023.76 1023.68 1023.60 1023.48 1023.38 1023.32 1023.26 1023.16 1023.06 1022.94 1022.82 1022.72 1022.62 1022.54 1022.44 1022.38 1022.32 1022.18 1022.06 1021.90 1021.76 1021.56 1021.38 1021.22 1021.06 1020.94 1020.78 1020.68 1020.60 1020.48 1020.26 1019.96 1019.66 1019.34 1019.06 1018.78 1018.54 1018.32 1018.18 1018.10 1017.94 1017.82 1017.68 1017.54 1017.38 1017.26 1017.16 1017.10 1016.96 1016.84 1016.72 1016.60 1016.44 1016.26 1016.10 1015.94 1015.78
1024.96 1024.88 1024.78 1024.72 1024.60 1024.48 1024.32 1024.22 1024.10 1024.00 1023.90 1023.82 1023.76 1023.62 1023.54 1023.44 1023.34 1023.28 1023.22 1023.12 1023.04 1022.90 1022.82 1022.72 1022.60 1022.54 1022.48 1022.38 1022.28 1022.16 1022.04 1021.88 1021.68 1021.50 1021.32 1021.18 1021.00 1020.90 1020.78 1020.66 1020.54 1020.38 1020.16 1019.88 1019.56 1019.26 1018.96 1018.72 1018.48 1018.26 1018.10 1017.96 1017.88 1017.76 1017.60 1017.50 1017.40 1017.28 1017.16 1017.06 1016.94 1016.82 1016.66 1016.50 1016.34 1016.16 1016.00 1015.84 1015.66
1024.90 1024.84 1024.78 1024.66 1024.56 1024.44 1024.28 1024.18 1024.06 1023.94 1023.84 1023.76 1023.66 1023.60 1023.50 1023.40 1023.32 1023.26 1023.18 1023.10 1023.00 1022.94 1022.82 1022.72 1022.62 1022.56 1022.50 1022.40 1022.28 1022.16 1022.00 1021.84 1021.62 1021.44 1021.32 1021.22 1021.04 1020.90 1020.82 1020.68 1020.54 1020.34 1020.10 1019.78 1019.44 1019.12 1018.84 1018.62 1018.44 1018.26 1018.06 1017.88 1017.76 1017.68 1017.60 1017.50 1017.40 1017.28 1017.16 1017.04 1016.84 1016.72 1016.56 1016.40 1016.22 1016.06 1015.90 1015.78 1015.60
1024.82 1024.78 1024.72 1024.62 1024.50 1024.38 1024.22 1024.10 1023.96 1023.84 1023.78 1023.72 1023.62 1023.56 1023.50 1023.40 1023.32 1023.26 1023.18 1023.10 1023.00 1022.88 1022.78 1022.72 1022.66 1022.60 1022.50 1022.40 1022.28 1022.16 1022.04 1021.84 1021.60 1021.40 1021.26 1021.16 1021.04 1020.90 1020.76 1020.62 1020.48 1020.26 1019.96 1019.62 1019.32 1019.00 1018.76 1018.56 1018.38 1018.18 1017.96 1017.78 1017.66 1017.60 1017.54 1017.48 1017.38 1017.26 1017.12 1016.96 1016.78 1016.66 1016.50 1016.34 1016.16 1016.00 1015.84 1015.66 1015.50
1024.76 1024.68 1024.62 1024.50 1024.38 1024.22 1024.10 1023.96 1023.88 1023.78 1023.72 1023.68 1023.60 1023.54 1023.48 1023.40 1023.32 1023.26 1023.18 1023.10 1022.96 1022.84 1022.76 1022.68 1022.60 1022.54 1022.48 1022.34 1022.28 1022.16 1022.04 1021.84 1021.66 1021.48 1021.32 1021.18 1021.04 1020.90 1020.76 1020.54 1020.38 1020.16 1019.88 1019.50 1019.18 1018.94 1018.68 1018.50 1018.32 1018.12 1017.90 1017.68 1017.60 1017.56 1017.54 1017.44 1017.34 1017.18 1017.00 1016.84 1016.68 1016.54 1016.40 1016.22 1016.04 1015.88 1015.72 1015.54 1015.38
1024.68 1024.60 1024.50 1024.38 1024.26 1024.10 1023.96 1023.88 1023.78 1023.72 1023.66 1023.62 1023.56 1023.50 1023.44 1023.34 1023.26 1023.18 1023.10 1023.00 1022.90 1022.82 1022.76 1022.68 1022.62 1022.60 1022.50 1022.40 1022.28 1022.16 1022.00 1021.82 1021.62 1021.44 1021.28 1021.16 1021.04 1020.88 1020.66 1020.48 1020.28 1020.06 1019.76 1019.38 1019.10 1018.88 1018.68 1018.50 1018.28 1018.04 1017.78 1017.56 1017.54 1017.54 1017.50 1017.38 1017.22 1017.04 1016.88 1016.72 1016.56 1016.40 1016.26 1016.10 1015.90 1015.76 1015.56 1015.40 1015.26
1024.56 1024.44 1024.34 1024.26 1024.10 1024.00 1023.90 1023.78 1023.72 1023.66 1023.62 1023.60 1023.50 1023.44 1023.38 1023.28 1023.22 1023.16 1023.06 1022.94 1022.88 1022.84 1022.78 1022.76 1022.68 1022.62 1022.56 1022.44 1022.32 1022.16 1021.96 1021.78 1021.56 1021.40 1021.26 1021.10 1020.94 1020.78 1020.60 1020.40 1020.22 1020.00 1019.66 1019.34 1019.06 1018.84 1018.62 1018.40 1018.18 1017.94 1017.72 1017.54 1017.50 1017.48 1017.38 1017.26 1017.10 1016.90 1016.76 1016.60 1016.40 1016.26 1016.10 1015.94 1015.76 1015.56 1015.38 1015.22 1015.04
1024.38 1024.32 1024.22 1024.10 1024.00 1023.90 1023.82 1023.78 1023.68 1023.62 1023.60 1023.54 1023.48 1023.40 1023.32 1023.26 1023.22 1023.16 1023.04 1022.90 1022.84 1022.82 1022.78 1022.72 1022.68 1022.62 1022.54 1022.40 1022.28 1022.10 1021.90 1021.72 1021.54 1021.38 1021.18 1021.00 1020.84 1020.68 1020.50 1020.32 1020.12 1019.88 1019.60 1019.32 1019.06 1018.82 1018.56 1018.32 1018.06 1017.84 1017.62 1017.54 1017.48 1017.40 1017.28 1017.12 1016.94 1016.78 1016.60 1016.40 1016.22 1016.04 1015.88 1015.72 1015.54 1015.34 1015.16 1015.00 1014.82
1024.26 1024.18 1024.10 1024.00 1023.94 1023.84 1023.78 1023.72 1023.66 1023.60 1023.56 1023.50 1023.44 1023.38 1023.28 1023.26 1023.18 1023.12 1023.04 1022.90 1022.84 1022.82 1022.78 1022.72 1022.66 1022.56 1022.48 1022.34 1022.22 1022.04 1021.82 1021.66 1021.48 1021.28 1021.10 1020.90 1020.76 1020.60 1020.44 1020.26 1020.04 1019.82 1019.54 1019.26 1019.00 1018.72 1018.48 1018.22 1017.94 1017.72 1017.56 1017.48 1017.40 1017.32 1017.16 1017.00 1016.78 1016.60 1016.40 1016.22 1016.00 1015.82 1015.62 1015.48 1015.28 1015.10 1014.94 1014.78 1014.62
1024.12 1024.06 1024.00 1023.94 1023.84 1023.78 1023.72 1023.66 1023.62 1023.60 1023.54 1023.50 1023.44 1023.38 1023.32 1023.26 1023.16 1023.10 1023.00 1022.90 1022.88 1022.84 1022.78 1022.72 1022.62 1022.54 1022.40 1022.28 1022.12 1021.94 1021.76 1021.56 1021.44 1021.26 1021.06 1020.84 1020.68 1020.54 1020.34 1020.12 1019.94 1019.68 1019.48 1019.18 1018.90 1018.62 1018.34 1018.10 1017.84 1017.66 1017.50 1017.38 1017.28 1017.16 1017.00 1016.84 1016.62 1016.44 1016.22 1016.00 1015.82 1015.62 1015.44 1015.26 1015.06 1014.84 1014.68 1014.54 1014.40
1024.00 1023.94 1023.88 1023.84 1023.78 1023.72 1023.68 1023.62 1023.60 1023.56 1023.54 1023.48 1023.44 1023.38 1023.28 1023.22 1023.16 1023.10 1022.96 1022.88 1022.90 1022.88 1022.82 1022.72 1022.60 1022.50 1022.34 1022.22 1022.06 1021.84 1021.62 1021.48 1021.34 1021.18 1021.00 1020.82 1020.62 1020.44 1020.26 1020.00 1019.82 1019.62 1019.40 1019.12 1018.84 1018.56 1018.28 1018.04 1017.82 1017.60 1017.44 1017.34 1017.22 1017.04 1016.88 1016.66 1016.48 1016.28 1016.06 1015.84 1015.62 1015.40 1015.22 1015.06 1014.84 1014.62 1014.44 1014.32 1014.16
1023.88 1023.82 1023.78 1023.76 1023.72 1023.66 1023.62 1023.60 1023.60 1023.56 1023.50 1023.44 1023.38 1023.32 1023.26 1023.18 1023.12 1023.06 1022.96 1022.90 1022.90 1022.88 1022.84 1022.72 1022.56 1022.40 1022.26 1022.10 1021.94 1021.76 1021.56 1021.40 1021.26 1021.10 1020.94 1020.78 1020.56 1020.32 1020.10 1019.90 1019.76 1019.56 1019.34 1019.06 1018.78 1018.50 1018.22 1017.96 1017.76 1017.54 1017.38 1017.28 1017.12 1016.94 1016.76 1016.54 1016.32 1016.12 1015.94 1015.72 1015.48 1015.22 1015.00 1014.82 1014.66 1014.44 1014.26 1014.10 1013.94
1023.78 1023.76 1023.72 1023.68 1023.66 1023.62 1023.60 1023.56 1023.56 1023.54 1023.48 1023.40 1023.34 1023.28 1023.22 1023.16 1023.10 1023.00 1022.94 1022.90 1022.90 1022.84 1022.78 1022.66 1022.50 1022.32 1022.16 1022.00 1021.84 1021.72 1021.54 1021.34 1021.16 1021.00 1020.84 1020.66 1020.40 1020.16 1019.94 1019.82 1019.68 1019.50 1019.28 1019.04 1018.72 1018.44 1018.16 1017.90 1017.68 1017.48 1017.28 1017.16 1017.00 1016.82 1016.62 1016.40 1016.18 1015.96 1015.78 1015.56 1015.32 1015.04 1014.78 1014.56 1014.44 1014.28 1014.10 1013.88 1013.72
1023.72 1023.66 1023.62 1023.60 1023.60 1023.54 1023.54 1023.54 1023.48 1023.44 1023.40 1023.38 1023.34 1023.28 1023.18 1023.10 1023.06 1023.04 1022.96 1022.90 1022.84 1022.78 1022.68 1022.56 1022.40 1022.26 1022.06 1021.94 1021.78 1021.66 1021.50 1021.28 1021.06 1020.88 1020.68 1020.50 1020.32 1020.10 1019.90 1019.76 1019.60 1019.44 1019.22 1019.00 1018.68 1018.40 1018.12 1017.88 1017.66 1017.40 1017.22 1017.06 1016.88 1016.72 1016.54 1016.32 1016.10 1015.84 1015.62 1015.40 1015.18 1014.94 1014.66 1014.40 1014.22 1014.06 1013.90 1013.68 1013.54
Wind_Speed
6 6 6 6 5 5 4 4 5 5 5 5 5 6 6 6 5 5 5 6 6 6 6 6 6 7 9 12 12 12 12 12 13 12 11 11 11 12 12 12 12 12 12 13 13 12 11 11 9 7 5 6 5 6 7 6 7 8 8 8 7 6 6 6 6 7 7 7 6
7 7 7 7 6 5 5 5 5 6 6 5 5 6 6 6 5 5 5 6 5 5 5 5 7 8 10 12 12 12 12 12 13 12 11 11 11 11 12 12 12 12 12 12 12 11 10 11 9 7 5 6 6 6 6 7 7 8 8 8 7 6 6 6 7 8 8 8 8
7 7 7 7 7 6 5 5 6 6 6 6 6 6 6 5 5 5 5 6 6 6 5 5 6 8 10 11 11 11 11 12 12 12 11 10 11 12 12 12 12 12 12 12 12 11 11 11 9 6 6 6 6 6 6 7 8 8 7 7 6 6 5 5 7 7 7 6 8
7 7 7 7 8 7 6 6 6 7 6 5 6 6 6 5 5 5 5 6 6 6 6 6 6 7 9 10 11 11 11 12 12 12 11 10 11 12 12 12 12 12 12 11 12 12 12 12 8 6 6 7 7 7 7 8 8 8 7 6 6 5 5 5 6 6 5 5 6
7 7 6 6 7 7 6 6 6 6 6 5 5 5 5 5 5 5 6 6 6 6 7 7 6 7 8 10 12 12 12 12 12 11 10 10 11 11 11 12 12 11 11 11 11 12 11 12 7 6 6 7 6 7 8 9 9 8 7 6 6 6 6 6 6 6 6 6 6
6 6 6 6 6 6 6 5 6 6 5 4 5 6 5 5 5 6 6 6 6 7 8 8 7 8 9 11 11 11 11 10 10 10 10 10 10 11 11 10 11 10 10 10 11 11 11 10 7 5 6 6 6 7 8 10 9 8 8 7 6 6 6 7 6 6 7 8 9
5 5 5 5 5 5 5 5 5 5 4 4 5 6 6 6 6 6 7 6 6 6 7 7 7 8 9 10 10 10 10 10 10 10 10 10 10 10 10 10 10 10 10 10 10 10 10 9 6 6 6 6 5 6 8 9 9 8 8 7 6 6 6 7 7 7 8 10 11
5 5 5 5 5 5 5 5 5 4 4 4 5 6 7 6 7 7 7 6 6 6 7 7 8 8 8 9 10 10 10 10 10 10 10 10 10 10 10 10 10 10 10 9 10 10 9 8 6 6 6 6 5 6 8 9 9 9 8 8 7 6 6 6 6 7 8 10 10
4 5 5 5 5 5 5 5 5 5 5 5 6 7 7 7 7 7 7 6 6 7 7 7 8 8 9 9 9 9 9 9 10 10 9 9 10 10 10 9 10 9 9 9 9 9 9 7 6 6 6 6 6 7 8 9 9 9 8 7 7 7 7 6 7 7 8 9 9
4 5 5 5 6 6 6 6 5 5 6 6 7 7 8 8 8 7 7 6 7 8 8 8 8 9 9 8 8 9 9 9 9 9 9 9 10 10 10 9 9 9 9 9 8 8 8 6 6 6 6 6 7 7 8 8 9 9 8 6 7 7 8 7 7 8 8 8 9
4 5 5 5 6 6 6 6 5 5 6 6 7 7 8 8 8 8 7 7 8 9 9 8 8 8 8 8 8 8 8 8 8 9 9 9 10 10 10 9 10 9 9 9 8 7 7 6 6 7 7 7 7 7 8 8 8 8 8 7 7 8 8 8 8 8 8 8 9
4 4 5 5 6 6 6 6 5 5 6 7 7 7 8 8 9 9 9 9 9 9 9 8 8 8 8 7 7 8 8 8 9 9 9 9 10 10 10 10 10 10 9 9 8 7 6 7 7 8 9 8 7 7 7 9 9 9 9 9 9 9 9 9 9 8 8 8 9
4 4 5 5 6 6 6 6 5 5 6 7 7 7 7 8 9 9 9 9 9 8 7 7 7 7 7 7 7 7 8 8 9 9 9 9 9 10 10 10 10 9 9 8 8 7 7 7 8 9 9 9 8 8 8 9 9 9 9 10 10 10 10 10 10 9 9 10 10
4 4 5 6 6 5 5 5 5 5 6 7 7 7 7 7 8 8 8 7 7 7 6 6 6 6 7 7 7 7 8 8 9 9 9 9 8 9 9 9 9 9 8 8 8 8 8 8 9 9 10 10 9 9 9 9 9 9 9 10 10 10 10 10 10 10 10 11 11
4 4 5 5 5 5 5 5 5 5 6 6 6 6 6 5 6 6 6 6 6 6 6 6 6 6 7 7 7 7 8 8 9 9 9 8 8 8 8 9 9 9 8 8 8 8 8 9 9 9 9 10 10 10 10 9 9 9 9 9 9 10 10 10 10 10 10 11 11
4 4 5 5 5 5 5 5 4 4 5 5 5 5 5 5 5 5 6 6 6 5 6 6 6 6 7 7 7 7 7 7 8 8 8 8 8 8 9 9 9 9 9 9 9 8 8 8 8 9 9 10 10 10 10 10 9 9 9 9 9 9 10 10 10 10 10 11 11
5 5 5 6 6 6 5 5 4 4 4 5 5 5 5 5 5 5 6 6 6 6 6 7 6 6 6 7 7 7 6 7 7 7 7 7 7 8 9 9 9 9 10 9 9 9 9 9 8 9 9 10 10 10 10 10 9 9 9 9 9 9 9 10 10 10 10 10 11
5 5 5 6 6 5 5 5 5 5 5 5 5 5 5 5 5 5 6 6 6 6 7 7 7 6 6 7 7 6 6 6 7 7 7 7 7 7 8 9 9 9 9 9 9 9 9 9 9 9 9 9 9 10 10 10 9 9 9 9 9 9 9 9 9 9 9 10 10
5 5 5 5 5 5 5 5 5 5 5 5 5 5 5 5 5 5 6 6 6 6 7 7 7 7 7 7 7 7 7 6 7 7 7 7 7 7 8 9 9 9 9 9 9 9 9 9 9 9 9 9 9 9 9 9 9 9 9 9 9 9 9 9 9 9 9 9 10
5 5 5 5 5 5 5 5 5 5 5 5 5 5 5 6 6 6 6 6 6 6 6 7 7 7 7 7 7 7 7 6 7 7 7 6 7 8 9 9 8 8 8 8 8 8 9 9 9 10 10 10 10 10 10 9 9 9 9 8 9 9 9 9 9 9 9 10 10
4 4 4 4 5 5 5 4 4 5 5 5 5 5 5 5 6 6 6 6 6 6 6 6 7 7 7 8 8 7 7 6 6 7 7 6 7 8 9 8 8 8 8 8 8 8 9 9 10 10 10 10 10 10 10 9 9 9 9 9 9 9 9 9 9 9 10 10 10
4 4 4 4 4 4 5 5 5 5 5 5 5 5 5 5 5 5 6 6 6 6 6 6 7 7 7 7 7 7 7 6 6 6 6 6 7 8 8 8 8 8 8 8 8 9 9 10 10 10 10 10 10 10 9 9 10 10 10 10 10 10 10 9 9 9 10 10 10
4 4 4 4 4 5 5 5 5 5 5 5 5 5 5 5 5 5 6 5 6 6 6 6 6 6 7 7 7 7 7 7 7 6 6 6 7 7 8 7 7 7 7 7 8 8 9 9 10 9 9 9 9 9 9 9 10 10 10 11 11 11 10 9 9 10 10 10 10
4 4 4 4 4 5 5 5 5 5 5 5 5 5 5 5 6 6 6 6 6 6 6 5 6 6 6 6 6 7 7 7 8 7 7 7 7 7 7 7 7 7 7 6 8 10 10 9 9 8 8 8 8 8 9 9 9 10 10 11 11 11 10 10 10 10 10 11 10
5 5 5 5 5 5 4 4 5 5 5 5 5 5 5 5 5 5 6 6 6 6 6 6 6 6 5 5 6 6 7 7 7 8 8 8 8 7 7 7 6 6 6 7 12 15 16 14 11 9 8 7 8 8 8 9 10 10 10 10 10 11 11 10 11 11 11 11 10
4 5 5 5 5 5 4 4 5 5 5 5 5 5 5 5 5 5 5 6 6 6 6 6 6 6 6 5 6 7 7 7 7 7 8 8 8 8 7 7 6 6 6 10 15 18 18 18 17 14 11 8 8 8 8 8 9 9 9 10 10 10 11 11 11 11 11 10 10
4 4 4 5 5 5 5 4 4 4 4 5 5 5 5 5 5 5 5 5 6 6 5 5 5 6 7 5 6 7 7 7 7 7 7 8 8 8 8 7 6 6 8 13 17 18 18 18 18 17 14 10 8 8 8 8 8 9 9 9 9 10 11 11 12 12 12 11 11
3 4 4 4 4 5 4 4 4 4 5 5 5 5 5 5 5 5 5 6 6 6 5 5 5 5 5 5 6 7 8 8 7 7 7 8 8 8 8 7 7 8 11 16 18 18 18 18 18 18 17 14 9 8 8 8 8 8 8 8 9 10 11 11 11 11 11 12 12
3 3 4 4 4 4 4 4 4 5 5 5 5 5 5 5 5 6 6 6 6 6 5 5 5 5 5 5 6 7 8 8 7 7 7 8 9 9 9 8 8 10 14 18 18 18 18 18 18 19 18 17 11 8 6 6 7 7 8 8 8 9 10 10 10 10 11 12 12
3 3 3 4 4 4 4 4 4 4 5 4 5 5 5 5 6 6 7 7 6 6 5 5 5 5 6 7 7 7 7 7 7 8 8 8 9 9 9 9 9 10 13 18 18 18 18 18 18 19 19 19 14 9 6 6 7 8 8 8 9 10 10 11 11 12 12 12 13
3 3 3 3 4 4 4 4 4 4 5 5 5 5 5 6 6 6 6 6 6 6 6 6 6 6 7 7 6 7 7 8 8 8 8 8 9 9 9 9 9 10 13 17 18 18 18 18 18 19 19 19 14 9 6 7 7 8 8 8 9 10 11 11 11 12 13 14 14
3 3 3 3 3 4 4 4 4 5 5 5 5 5 5 6 5 5 5 5 6 6 6 6 6 7 7 7 7 7 8 8 9 9 8 8 9 9 9 9 9 10 13 17 18 18 18 18 18 19 19 19 13 9 7 7 8 8 8 9 10 11 11 10 11 12 14 14 14
3 2 2 3 3 4 4 4 4 5 5 5 5 5 5 6 5 5 5 5 5 5 5 6 6 7 7 7 7 7 8 8 8 9 9 9 9 9 9 9 8 10 14 17 18 18 18 18 18 19 19 19 13 9 8 8 7 8 8 9 10 11 12 12 12 13 13 14 13
2 2 2 3 3 4 4 4 5 5 5 5 5 5 5 6 6 6 6 6 5 5 4 5 5 6 6 6 6 7 8 8 8 8 9 9 9 9 8 8 7 10 14 18 18 18 18 18 18 19 19 17 11 8 8 9 8 8 9 10 10 11 11 12 12 12 13 13 12
2 2 3 3 3 4 4 5 5 5 5 5 6 6 6 5 6 6 6 7 6 5 4 4 5 5 5 5 6 6 7 8 8 9 9 9 9 9 9 8 8 11 15 17 18 18 18 18 19 19 18 15 9 8 8 9 9 9 10 11 11 12 12 12 11 12 12 12 12
2 2 3 3 3 4 4 5 5 5 5 6 6 6 6 6 5 5 6 6 6 5 5 5 5 5 5 6 6 6 7 8 8 9 9 9 9 8 8 8 8 10 14 17 18 18 18 18 19 19 17 12 8 7 8 8 8 9 10 11 11 12 12 12 11 11 11 11 11
2 2 2 3 3 4 4 4 5 5 5 6 5 6 6 6 5 5 5 6 5 5 5 5 6 6 6 6 6 6 7 7 8 8 9 9 9 8 8 8 7 9 12 16 17 18 18 18 19 19 16 10 8 7 8 7 7 8 9 11 11 12 12 11 11 11 11 11 12
2 2 2 2 3 3 4 4 5 5 5 5 5 5 5 5 5 5 5 6 4 5 5 5 6 6 6 6 7 8 8 8 8 8 9 9 8 8 8 7 7 8 10 15 17 18 19 19 19 19 16 11 9 8 8 7 7 8 9 10 10 11 11 10 10 10 10 12 14
2 2 1 2 2 3 4 4 4 4 5 5 5 5 5 5 4 4 5 5 4 4 5 5 6 7 7 7 7 7 8 8 8 8 8 8 8 8 9 7 7 7 10 14 17 18 19 19 19 19 17 12 9 8 7 7 8 9 9 10 10 11 11 10 10 9 10 12 17
2 1 1 1 2 2 3 4 4 4 4 4 5 5 5 5 4 5 5 5 4 4 5 5 6 7 8 8 8 7 7 8 8 8 8 8 9 10 10 8 7 8 9 13 17 18 19 19 19 19 17 12 10 8 7 7 8 9 10 10 10 10 11 10 10 10 10 12 14
2 1 1 1 2 2 3 3 4 4 4 4 4 4 4 5 4 4 4 4 4 4 5 5 6 7 8 8 7 7 7 8 8 8 8 8 8 9 9 7 7 7 8 11 16 18 19 19 19 19 18 13 10 9 8 8 9 10 10 11 10 10 10 11 10 10 10 11 12
Wind_Direction
9 8 7 9 7 4 2 2 1 1 1 359 0 358 354 349 354 359 1 358 355 354 355 358 0 356 351 349 347 346 345 343 343 347 355 2 3 1 357 353 354 355 356 355 351 347 343 338 329 330 339 343 13 24 22 12 0 355 352 349 347 345 345 347 353 352 350 348 348
12 12 11 11 8 4 2 3 1 1 2 2 2 358 352 348 352 356 357 355 352 351 352 355 357 354 350 348 347 345 344 342 341 344 352 1 3 2 358 353 352 354 356 356 352 349 343 335 330 338 352 347 7 18 17 9 0 354 349 346 344 345 347 353 1 1 360 2 3
13 12 12 11 8 6 4 3 359 359 0 4 3 357 351 347 351 353 352 348 347 348 351 353 354 352 350 347 346 345 344 342 341 343 349 357 1 2 359 352 351 352 355 356 352 348 342 334 331 342 356 348 0 10 13 6 359 353 348 345 344 346 351 357 1 0 359 1 1
13 13 12 11 9 8 7 2 356 356 359 4 4 357 350 347 350 351 347 342 343 347 351 352 352 351 349 347 346 345 344 343 342 343 347 354 358 359 357 352 351 351 353 355 352 347 342 334 333 344 356 348 356 6 11 2 357 353 349 345 344 348 354 357 358 357 355 354 353
12 11 10 9 8 9 8 2 356 357 0 4 4 358 351 348 352 351 347 342 345 346 347 348 351 350 347 346 345 345 344 342 342 344 347 351 355 356 354 351 350 350 352 354 352 347 341 334 335 347 356 349 355 5 9 1 356 352 349 344 345 350 356 356 355 354 352 350 348
7 6 5 5 4 6 7 3 357 358 2 5 4 358 351 349 353 351 347 342 341 341 342 345 348 348 346 345 344 344 344 342 342 343 346 349 352 352 351 348 348 349 351 353 352 348 343 335 339 350 356 350 354 2 6 1 356 352 348 344 345 350 355 354 352 352 351 349 346
0 358 358 0 0 3 6 3 358 358 3 5 3 356 350 348 352 350 346 339 340 341 342 344 347 346 345 343 341 342 342 342 341 343 345 348 350 350 348 345 346 348 351 353 353 350 345 337 342 349 353 350 351 357 0 359 354 350 346 343 345 349 352 351 350 349 347 346 344
353 352 353 357 358 3 5 2 358 2 6 5 1 354 348 348 351 350 347 344 345 344 342 343 344 343 342 340 339 339 340 340 339 341 344 347 347 347 345 344 344 347 350 352 352 350 347 341 346 350 350 350 350 352 354 353 351 348 344 341 342 344 347 345 346 344 342 340 339
351 349 351 356 0 3 4 1 1 5 8 5 360 353 349 351 353 352 350 349 347 345 343 342 341 341 340 338 337 338 338 338 337 338 341 345 346 345 344 343 344 346 348 351 351 349 347 345 348 349 348 348 347 347 346 347 345 344 341 337 338 339 340 339 339 338 337 335 333
353 351 352 357 1 4 4 1 2 6 8 4 0 356 353 356 355 354 351 349 346 345 344 343 341 340 338 337 336 336 336 335 333 335 338 343 345 345 344 343 344 345 347 349 348 347 346 345 345 345 344 344 343 341 339 339 339 338 337 334 334 334 333 333 334 334 333 330 327
353 352 354 357 0 2 2 1 2 4 5 3 0 358 356 357 356 354 351 350 347 346 345 342 340 338 336 335 334 334 334 333 331 333 337 342 344 344 343 342 342 344 345 348 347 345 344 343 342 342 342 341 339 336 334 333 333 333 332 330 330 330 330 331 333 332 329 326 323
351 355 357 359 359 0 1 1 0 2 3 2 360 359 357 357 354 352 351 349 347 345 342 339 337 335 334 332 332 332 332 330 329 331 336 341 343 343 342 341 341 343 345 346 346 344 341 340 339 340 340 340 336 333 331 330 331 331 330 330 331 331 331 331 332 330 327 324 322
346 354 359 3 1 1 0 358 356 359 1 0 359 357 356 354 352 351 349 347 344 341 337 334 334 333 332 330 330 331 331 329 329 332 336 340 342 342 342 340 340 342 344 345 344 342 340 339 339 339 339 337 334 330 328 328 329 329 330 330 331 331 331 330 330 328 325 323 320
341 350 358 3 1 359 358 355 355 357 358 357 356 354 351 349 348 347 345 342 337 334 332 331 333 333 332 330 329 330 329 329 330 332 335 338 340 341 340 338 339 340 342 343 342 340 339 338 339 338 336 333 330 327 326 326 326 327 327 329 329 329 328 328 326 325 323 322 319
342 350 357 1 359 357 355 354 354 353 353 351 349 346 344 342 341 340 338 334 332 331 331 333 333 332 331 330 329 329 328 328 330 331 333 335 336 338 338 337 337 339 341 341 340 338 338 337 337 335 332 328 325 323 321 321 321 322 323 324 325 325 325 324 323 322 320 319 317
350 355 359 360 356 354 351 350 348 346 344 342 339 337 336 334 334 334 334 333 332 332 334 335 333 331 331 331 330 329 328 328 330 330 331 331 333 336 338 338 338 339 340 340 338 337 336 337 334 330 326 322 319 318 317 315 316 317 319 321 322 321 321 320 319 318 317 317 316
354 356 357 355 351 347 343 339 337 336 334 331 330 330 330 330 331 333 335 335 335 334 334 333 333 332 331 331 331 330 330 330 330 330 329 329 331 334 336 337 337 337 338 338 336 336 335 334 330 324 319 315 313 312 311 310 311 313 316 318 319 318 317 316 315 315 315 314 313
350 351 349 346 341 336 332 329 328 327 326 325 326 327 328 330 331 333 334 335 335 334 333 332 331 331 330 330 330 331 332 331 330 328 327 326 328 330 333 335 335 335 335 335 334 334 332 329 324 318 313 309 308 306 306 306 307 309 313 316 316 315 313 312 312 312 312 312 312
340 339 337 333 329 325 324 323 324 324 323 323 325 327 329 330 331 332 332 333 334 333 332 331 331 331 330 329 329 330 332 331 328 326 324 323 326 329 332 333 333 333 333 333 332 330 327 322 316 311 307 305 304 302 301 302 304 308 312 314 313 312 311 310 310 311 311 311 311
326 326 324 321 319 318 317 319 320 320 321 323 325 327 328 329 331 332 332 330 331 332 332 331 331 331 331 330 330 330 331 330 328 325 323 322 326 330 332 333 331 330 330 331 329 325 320 314 309 305 302 301 301 301 301 303 306 310 312 313 311 310 309 308 309 311 311 311 310
313 313 312 312 313 313 313 314 316 318 319 320 323 325 326 328 330 330 329 327 329 331 333 333 332 331 331 330 330 329 328 329 327 325 322 321 327 330 331 331 329 328 328 328 324 318 312 306 302 300 299 299 300 301 304 307 310 312 313 312 310 308 308 308 310 311 312 311 310
303 305 305 307 308 310 311 313 314 316 317 319 322 324 326 328 328 327 326 327 331 334 335 334 332 330 328 327 326 326 326 327 326 322 319 319 325 328 329 328 326 324 324 324 318 311 305 300 299 299 298 299 301 304 307 311 313 313 313 311 309 308 308 310 311 312 311 309 307
298 300 303 305 306 309 312 314 314 316 318 321 324 327 329 329 328 328 330 332 335 335 335 333 330 326 324 321 322 324 326 326 325 321 319 319 322 325 326 326 323 322 321 320 313 307 303 301 301 301 301 302 305 308 311 313 313 312 311 309 309 309 310 312 312 312 309 307 303
299 301 303 304 307 309 310 312 316 320 323 326 328 330 331 331 331 332 333 335 335 334 333 331 327 323 320 320 324 327 327 326 324 321 320 323 323 324 324 324 322 321 320 317 313 312 312 310 307 306 306 308 310 312 313 313 311 309 308 308 309 310 311 312 312 309 307 304 302
301 303 304 305 307 309 311 315 319 322 325 327 329 331 332 333 333 334 334 334 334 332 330 328 324 322 323 327 329 329 328 325 320 319 320 324 324 324 324 323 321 321 320 315 315 317 318 318 316 314 313 314 315 314 313 311 308 307 306 307 310 312 313 311 310 307 304 302 301
302 305 305 305 308 310 313 316 318 321 324 328 331 333 334 333 332 332 333 333 332 331 330 328 327 330 334 335 333 331 327 323 318 316 317 322 323 324 324 322 322 320 317 315 318 319 320 320 320 320 320 319 319 317 313 309 308 307 307 309 312 313 313 311 308 307 304 301 300
304 304 304 305 309 311 312 312 317 323 327 331 333 332 331 330 332 333 334 333 332 331 331 331 330 334 337 336 333 330 326 322 316 313 314 319 322 323 322 320 321 319 317 317 319 320 320 320 321 323 324 324 321 317 313 310 310 310 311 314 314 313 311 308 307 306 305 303 301
300 300 302 306 310 310 311 313 322 327 330 331 332 331 331 332 333 335 336 336 335 335 336 336 336 336 337 335 332 328 324 319 315 313 315 319 321 321 321 320 319 317 317 318 319 320 321 321 323 325 326 326 322 316 313 312 313 315 316 316 314 311 308 305 305 305 305 305 304
291 294 299 305 307 309 312 320 327 330 330 330 331 331 333 335 337 339 339 340 340 341 340 337 337 337 336 334 329 326 322 318 315 315 318 320 321 321 320 318 317 315 316 318 319 320 321 323 325 326 327 327 324 321 319 318 319 319 318 315 311 308 306 306 306 306 306 306 306
283 288 294 299 304 309 316 323 327 330 331 332 334 335 337 339 341 342 342 342 340 338 335 333 334 334 332 329 327 325 323 319 318 319 319 319 320 319 318 316 313 312 314 317 319 321 323 326 327 328 327 327 325 324 323 324 322 319 315 310 308 307 306 307 306 307 307 307 306
277 281 288 296 306 312 319 323 328 332 334 336 337 339 341 343 342 342 340 338 334 331 330 331 332 330 328 326 325 323 320 316 317 318 318 318 317 316 313 311 309 308 311 316 320 323 326 328 329 328 327 328 329 330 329 326 321 316 311 308 308 308 308 307 307 307 306 306 306
272 279 290 303 312 318 323 328 333 336 338 338 339 340 341 341 339 336 334 332 330 330 331 333 333 331 328 326 323 320 317 314 313 314 314 314 313 311 309 309 307 308 312 318 322 326 329 330 329 328 328 330 333 334 331 324 318 312 309 307 307 308 308 308 306 306 305 305 304
273 283 298 312 319 324 328 334 337 338 340 340 341 341 340 338 336 335 335 333 333 332 332 333 332 329 326 322 319 316 312 309 308 308 309 309 308 307 306 307 305 308 313 320 325 328 330 330 330 330 330 334 337 336 330 322 316 312 309 308 308 307 306 305 304 304 303 303 302
280 295 309 321 326 330 333 337 339 340 341 342 341 341 340 339 338 337 337 336 334 332 330 327 324 320 315 312 310 308 306 306 305 305 305 305 305 305 305 306 303 310 316 323 328 330 331 331 331 332 334 338 339 335 327 321 316 313 310 308 307 306 305 304 302 301 301 300 300
290 307 320 327 331 334 336 339 341 342 343 343 341 340 340 339 337 335 332 331 331 329 325 320 316 311 307 304 302 302 302 303 303 303 303 303 304 304 304 303 300 309 318 325 329 331 331 332 333 335 337 341 338 332 324 319 315 312 310 308 307 306 305 304 302 301 300 300 300
292 312 325 330 333 337 339 341 342 344 344 343 340 339 338 337 334 329 327 327 329 326 321 317 314 312 309 306 304 302 301 300 301 302 302 303 303 303 302 301 299 309 319 327 330 332 333 334 335 337 339 341 336 328 322 318 314 311 310 309 308 308 307 306 304 303 302 301 301
290 311 324 331 335 337 340 341 344 344 342 339 337 335 334 332 328 325 324 328 327 324 320 316 314 312 308 306 303 300 298 297 299 300 301 301 301 301 300 300 300 309 319 327 331 333 334 336 337 339 340 339 333 326 321 317 314 312 311 311 310 310 310 308 306 305 304 303 303
288 305 322 330 334 336 338 342 343 340 336 333 330 329 328 326 324 322 323 329 325 321 317 314 311 307 304 302 300 298 296 296 296 297 297 297 297 298 300 302 304 309 318 326 331 334 336 337 338 340 340 338 332 326 321 318 315 314 314 314 313 313 312 310 309 308 307 306 307
284 295 311 325 329 334 337 339 337 332 328 325 324 324 324 322 320 318 320 323 319 314 311 307 304 302 301 302 301 299 297 296 295 294 293 292 293 298 304 308 308 310 316 326 331 334 336 338 338 339 340 336 332 326 322 319 317 316 316 316 315 315 314 313 313 311 309 308 310
273 281 296 314 324 330 332 331 326 321 319 319 319 319 318 316 314 314 316 317 312 307 303 300 298 297 299 303 302 300 298 296 294 292 290 289 294 303 310 311 308 307 313 324 331 334 336 338 338 339 339 335 332 328 324 321 320 319 319 319 318 317 317 316 315 314 311 310 311
263 275 295 309 318 323 325 321 315 312 312 314 311 310 309 311 311 313 314 314 309 306 302 298 296 297 299 302 301 298 296 294 293 291 290 292 297 305 310 308 305 304 310 321 330 334 336 337 338 339 339 335 334 331 329 326 324 323 322 321 320 319 319 318 317 315 314 313 312